DW5499 Weather Reports


time (UTC)temp
F
wind
direction
speed
knots
gust
knots
rain 1hr
in
rain 24hr
in
rain mn
in
humidity
%
barometer
mb
20260503021558 57 181 2.6 5.2 0.00 0.00 0.00 44 1018.8
20260503020058 58 205 3.5 5.2 0.00 0.00 0.00 42 1018.9
20260503014552 58 201 2.6 4.3 0.00 0.00 0.00 41 1018.8
20260503013055 59 223 0.9 3.5 0.00 0.00 0.00 38 1018.8
20260503011610 61 195 2.6 4.3 0.00 0.00 0.00 35 1018.8
20260503010056 61 197 3.5 5.2 0.00 0.00 0.00 33 1018.8
20260503004551 62 212 2.6 5.2 0.00 0.00 0.00 32 1018.8
20260503003052 63 180 2.6 8.7 0.00 0.00 0.00 31 1018.8
20260503001551 64 228 0.9 7.8 0.00 0.00 0.00 30 1018.9
20260502234559 64 289 2.6 7.0 0.00 0.00 0.00 29 1019.3
20260502233146 64 255 2.6 9.6 0.00 0.00 0.00 29 1019.2
20260502231546 64 221 3.5 7.0 0.00 0.00 0.00 28 1019.3
20260502230044 64 271 1.7 9.6 0.00 0.00 0.00 29 1019.4
20260502224542 65 141 0.0 5.2 0.00 0.00 0.00 30 1019.4
20260502223042 64 309 0.9 3.5 0.00 0.00 0.00 30 1019.5
20260502221540 64 274 3.5 8.7 0.00 0.00 0.00 29 1019.6
20260502220045 64 359 0.9 7.8 0.00 0.00 0.00 29 1019.7
20260502214538 63 253 2.6 7.0 0.00 0.00 0.00 30 1019.9
20260502213039 63 245 1.7 7.8 0.00 0.00 0.00 29 1020.1
20260502211536 63 286 5.2 8.7 0.00 0.00 0.00 29 1020.3
20260502210032 63 280 3.5 7.0 0.00 0.00 0.00 30 1020.4
20260502204529 63 228 3.5 7.0 0.00 0.00 0.00 30 1020.7
20260502203028 63 345 6.1 13.9 0.00 0.00 0.00 31 1020.8
20260502201526 62 226 3.5 7.0 0.00 0.00 0.00 31 1020.9
20260502200026 62 335 2.6 6.1 0.00 0.00 0.00 31 1021.1
20260502194524 62 291 4.3 9.6 0.00 0.00 0.00 32 1021.1
20260502193021 61 307 4.3 8.7 0.00 0.00 0.00 34 1021.3
20260502191521 61 58 2.6 7.8 0.00 0.00 0.00 31 1021.4
20260502190027 60 263 4.3 10.4 0.00 0.00 0.00 32 1021.6
20260502184515 60 19 0.0 5.2 0.00 0.00 0.00 32 1021.8
20260502183016 59 4 2.6 9.6 0.00 0.00 0.00 32 1022.0
20260502181513 58 289 0.9 7.8 0.00 0.00 0.00 35 1022.2
20260502163011 57 1 7.0 14.8 0.00 0.00 0.00 35 1022.9
20260502161505 56 74 2.6 9.6 0.00 0.00 0.00 34 1023.0
20260502151612 54 7 6.1 8.7 0.00 0.00 0.00 42 1023.0
20260502140111 49 30 2.6 5.2 0.00 0.00 0.00 57 1023.1
20260502123040 42 288 0.9 2.6 0.00 0.00 0.00 68 1022.6
20260502121539 40 266 0.0 0.9 0.00 0.00 0.00 71 1022.5
20260502114533 39 266 0.9 1.7 0.00 0.00 0.00 70 1022.1
20260502113045 39 265 0.0 2.6 0.00 0.00 0.00 70 1022.0
20260502111531 40 265 0.0 1.7 0.00 0.00 0.00 69 1021.8
20260502110034 40 266 0.0 0.9 0.00 0.00 0.00 68 1021.8
20260502104523 41 266 0.0 1.7 0.00 0.00 0.00 66 1021.7
20260502103022 41 290 0.0 2.6 0.00 0.00 0.00 65 1021.5
20260502101524 41 266 0.9 2.6 0.00 0.00 0.00 65 1021.4
20260502091510 43 278 0.0 2.6 0.00 0.00 0.00 62 1021.1
20260502070105 47 357 0.0 3.5 0.00 0.00 0.00 52 1020.9
20260502064559 47 327 0.9 4.3 0.00 0.00 0.00 51 1020.9
20260502063052 47 325 0.9 3.5 0.00 0.00 0.00 51 1021.0
20260502061545 47 314 0.9 4.3 0.00 0.00 0.00 51 1021.0
20260502060042 48 309 0.0 3.5 0.00 0.00 0.00 50 1021.1
20260502054539 48 319 0.0 4.3 0.00 0.00 0.00 49 1020.9
20260502053038 49 335 0.9 4.3 0.00 0.00 0.00 48 1020.9
20260502051536 49 291 0.9 5.2 0.00 0.00 0.00 48 1020.9
20260502050039 50 320 0.9 5.2 0.00 0.00 0.00 47 1020.8
20260502044531 50 311 0.9 5.2 0.00 0.00 0.00 46 1020.8
20260502043027 51 316 1.7 5.2 0.00 0.00 0.00 46 1020.7
20260502041527 51 294 1.7 5.2 0.00 0.00 0.00 46 1020.6
20260502040023 52 301 0.9 5.2 0.00 0.00 0.00 45 1020.6
20260502034523 52 335 1.7 5.2 0.00 0.00 0.00 45 1020.5
20260502033017 53 310 2.6 6.1 0.00 0.00 0.00 43 1020.3
20260502031515 54 267 0.9 3.5 0.00 0.00 0.00 43 1020.2
20260502030013 54 297 2.6 6.1 0.00 0.00 0.00 42 1019.9
20260502024512 55 340 1.7 6.1 0.00 0.00 0.00 42 1019.7
20260502023008 55 331 0.9 3.5 0.00 0.00 0.00 42 1019.3